| time (UTC) | temp C | wind direction | speed KPH | gust KPH | rain 1hr cm | rain 24hr cm | rain mn cm | humidity % | barometer mb |
| 20260507144654 | 17 | 24 | 0.0 | 0.0 | 0.00 | 0.05 | 0.00 | 61 | 1014.5 |
| 20260507144551 | 17 | 360 | 0.0 | 0.0 | 0.00 | 0.30 | 0.00 | 61 | 1014.4 |
| 20260507144056 | 17 | 360 | 0.0 | 0.0 | 0.00 | 0.30 | 0.00 | 62 | 1014.4 |
| 20260507143548 | 17 | 360 | 0.0 | 0.0 | 0.00 | 0.30 | 0.00 | 60 | 1014.4 |
| 20260507143140 | 17 | 360 | 0.0 | 0.0 | 0.00 | 0.05 | 0.00 | 59 | 1014.5 |
| 20260507143039 | 17 | 360 | 0.0 | 0.0 | 0.00 | 0.30 | 0.00 | 60 | 1014.4 |
| 20260507142551 | 17 | 40 | 0.0 | 0.0 | 0.00 | 0.30 | 0.00 | 60 | 1014.4 |
| 20260507142037 | 17 | 40 | 0.0 | 0.0 | 0.00 | 0.30 | 0.00 | 59 | 1014.5 |
| 20260507141652 | 17 | 25 | 0.0 | 0.0 | 0.00 | 0.05 | 0.00 | 59 | 1014.6 |
| 20260507141549 | 17 | 360 | 0.0 | 0.0 | 0.00 | 0.30 | 0.00 | 58 | 1014.6 |
| 20260507141057 | 17 | 360 | 0.0 | 0.0 | 0.00 | 0.30 | 0.00 | 60 | 1014.6 |
| 20260507140545 | 17 | 13 | 0.0 | 0.0 | 0.00 | 0.30 | 0.00 | 61 | 1014.6 |
| 20260507140153 | 17 | 13 | 0.0 | 0.0 | 0.00 | 0.05 | 0.00 | 61 | 1014.7 |
| 20260507140053 | 17 | 13 | 0.0 | 0.0 | 0.00 | 0.30 | 0.00 | 60 | 1014.6 |
| 20260507135545 | 17 | 350 | 0.0 | 0.0 | 0.00 | 0.30 | 0.00 | 59 | 1014.6 |
| 20260507135050 | 17 | 349 | 0.0 | 0.0 | 0.00 | 0.30 | 0.00 | 60 | 1014.6 |
| 20260507134643 | 17 | 349 | 0.0 | 0.0 | 0.00 | 0.05 | 0.00 | 60 | 1014.8 |
| 20260507134542 | 17 | 346 | 0.0 | 0.0 | 0.00 | 0.30 | 0.00 | 59 | 1014.7 |
| 20260507134049 | 17 | 346 | 0.0 | 0.0 | 0.00 | 0.30 | 0.00 | 61 | 1014.8 |
| 20260507133559 | 17 | 360 | 0.0 | 0.0 | 0.00 | 0.30 | 0.00 | 60 | 1014.8 |
| 20260507133048 | 17 | 304 | 0.0 | 0.0 | 0.00 | 0.30 | 0.00 | 59 | 1014.8 |
| 20260507133002 | 17 | 304 | 0.0 | 0.0 | 0.00 | 0.05 | 0.00 | 59 | 1014.9 |
| 20260507132600 | 17 | 35 | 0.0 | 0.0 | 0.00 | 0.30 | 0.00 | 58 | 1014.8 |
| 20260507132045 | 18 | 33 | 0.0 | 0.0 | 0.00 | 0.30 | 0.00 | 57 | 1014.7 |
| 20260507131659 | 18 | 53 | 0.0 | 0.0 | 0.00 | 0.05 | 0.00 | 56 | 1014.8 |
| 20260507131557 | 18 | 21 | 0.0 | 0.0 | 0.00 | 0.30 | 0.00 | 57 | 1014.8 |
| 20260507131040 | 18 | 54 | 0.0 | 0.0 | 0.00 | 0.30 | 0.00 | 57 | 1014.7 |
| 20260507130552 | 17 | 52 | 0.0 | 0.0 | 0.00 | 0.30 | 0.00 | 59 | 1014.8 |
| 20260507130201 | 17 | 52 | 0.0 | 0.0 | 0.00 | 0.08 | 0.00 | 60 | 1014.7 |
| 20260507130100 | 17 | 51 | 0.0 | 0.0 | 0.00 | 0.41 | 0.00 | 59 | 1014.6 |
| 20260507125548 | 18 | 36 | 0.0 | 0.0 | 0.00 | 0.41 | 0.00 | 57 | 1014.6 |
| 20260507125056 | 18 | 53 | 0.0 | 0.0 | 0.00 | 0.41 | 0.00 | 57 | 1014.6 |
| 20260507124649 | 17 | 23 | 0.0 | 0.0 | 0.00 | 0.08 | 0.00 | 61 | 1014.6 |
| 20260507124548 | 18 | 20 | 0.0 | 0.0 | 0.00 | 0.41 | 0.00 | 61 | 1014.6 |
| 20260507124111 | 18 | 20 | 0.0 | 0.0 | 0.00 | 0.41 | 0.00 | 58 | 1014.6 |
| 20260507123601 | 18 | 22 | 0.0 | 0.0 | 0.00 | 0.41 | 0.00 | 56 | 1014.6 |
| 20260507123149 | 18 | 47 | 0.0 | 0.0 | 0.00 | 0.08 | 0.00 | 58 | 1014.6 |
| 20260507123047 | 18 | 47 | 0.0 | 0.0 | 0.00 | 0.41 | 0.00 | 59 | 1014.5 |
| 20260507122559 | 18 | 239 | 0.0 | 0.0 | 0.00 | 0.41 | 0.00 | 58 | 1014.5 |
| 20260507122105 | 18 | 243 | 0.0 | 0.0 | 0.00 | 0.41 | 0.00 | 58 | 1014.6 |
| 20260507121659 | 17 | 59 | 0.0 | 0.0 | 0.00 | 0.08 | 0.00 | 59 | 1014.6 |
| 20260507121557 | 18 | 59 | 0.0 | 0.0 | 0.00 | 0.41 | 0.00 | 60 | 1014.5 |
| 20260507121045 | 18 | 24 | 0.0 | 0.0 | 0.00 | 0.41 | 0.00 | 61 | 1014.6 |
| 20260507120556 | 18 | 51 | 0.0 | 0.0 | 0.00 | 0.41 | 0.00 | 59 | 1014.6 |
| 20260507120145 | 18 | 44 | 0.0 | 0.0 | 0.00 | 0.08 | 0.00 | 59 | 1014.6 |
| 20260507120044 | 18 | 44 | 0.0 | 0.0 | 0.00 | 0.41 | 0.00 | 58 | 1014.6 |
| 20260507115556 | 18 | 44 | 0.0 | 0.0 | 0.00 | 0.41 | 0.00 | 59 | 1014.6 |
| 20260507115103 | 18 | 69 | 0.0 | 0.0 | 0.00 | 0.41 | 0.00 | 61 | 1014.6 |
| 20260507114655 | 17 | 59 | 0.0 | 0.0 | 0.00 | 0.08 | 0.00 | 64 | 1014.6 |
| 20260507114555 | 17 | 57 | 0.0 | 0.0 | 0.00 | 0.41 | 0.00 | 63 | 1014.6 |
| 20260507114043 | 17 | 57 | 0.0 | 0.0 | 0.00 | 0.41 | 0.00 | 58 | 1014.6 |
| 20260507113553 | 17 | 34 | 0.0 | 0.0 | 0.00 | 0.41 | 0.00 | 60 | 1014.6 |
| 20260507113109 | 17 | 26 | 0.0 | 0.0 | 0.00 | 0.41 | 0.00 | 61 | 1014.7 |
| 20260507113005 | 17 | 25 | 0.0 | 0.0 | 0.00 | 0.08 | 0.00 | 62 | 1014.6 |
| 20260507111503 | 18 | 26 | 0.0 | 0.0 | 0.00 | 0.08 | 0.00 | 60 | 1014.6 |
| 20260507104555 | 17 | 49 | 0.0 | 0.0 | 0.00 | 0.23 | 0.00 | 66 | 1014.7 |
| 20260507103056 | 17 | 48 | 0.0 | 0.0 | 0.00 | 0.23 | 0.00 | 65 | 1014.7 |
| 20260507101551 | 17 | 49 | 0.0 | 0.0 | 0.00 | 0.23 | 0.00 | 72 | 1014.8 |
| 20260507100051 | 16 | 23 | 0.0 | 0.0 | 0.00 | 0.38 | 0.00 | 75 | 1014.5 |
| 20260507094556 | 16 | 5 | 0.0 | 0.0 | 0.00 | 0.38 | 0.00 | 78 | 1014.6 |
| 20260507093041 | 15 | 26 | 0.0 | 0.0 | 0.00 | 0.38 | 0.00 | 82 | 1014.5 |
| 20260507091538 | 15 | 348 | 0.0 | 0.0 | 0.00 | 0.38 | 0.00 | 88 | 1014.4 |
| 20260507090034 | 14 | 41 | 0.0 | 0.0 | 0.00 | 0.43 | 0.00 | 93 | 1014.4 |
| 20260507084533 | 13 | 355 | 0.0 | 0.0 | 0.00 | 0.43 | 0.00 | 96 | 1014.4 |
| 20260507083027 | 13 | 44 | 0.0 | 0.0 | 0.00 | 0.43 | 0.00 | 97 | 1014.3 |
| 20260507081526 | 12 | 360 | 0.0 | 0.0 | 0.00 | 0.43 | 0.00 | 97 | 1014.2 |
| 20260507080019 | 11 | 360 | 0.0 | 0.0 | 0.00 | 0.46 | 0.00 | 97 | 1014.2 |
| 20260507074517 | 10 | 319 | 0.0 | 0.0 | 0.00 | 0.46 | 0.00 | 97 | 1014.1 |
| 20260507073013 | 10 | 355 | 0.0 | 0.0 | 0.00 | 0.46 | 0.00 | 97 | 1014.0 |
| 20260507071514 | 10 | 355 | 0.0 | 0.0 | 0.00 | 0.46 | 0.00 | 97 | 1013.9 |
| 20260507070018 | 10 | 20 | 0.0 | 0.0 | 0.00 | 0.53 | 0.00 | 97 | 1013.9 |
| 20260507064513 | 9 | 28 | 0.0 | 0.0 | 0.00 | 0.53 | 0.00 | 97 | 1013.9 |
| 20260507063007 | 9 | 28 | 0.0 | 0.0 | 0.00 | 0.53 | 0.00 | 97 | 1013.7 |
| 20260507061503 | 9 | 28 | 0.0 | 0.0 | 0.00 | 0.53 | 0.00 | 97 | 1013.4 |
| 20260507054559 | 8 | 29 | 0.0 | 0.0 | 0.00 | 0.64 | 0.00 | 97 | 1013.3 |
| 20260507053124 | 8 | 23 | 0.0 | 0.0 | 0.00 | 0.64 | 0.00 | 97 | 1013.0 |
| 20260507051556 | 8 | 23 | 0.0 | 0.0 | 0.00 | 0.64 | 0.00 | 97 | 1012.9 |
| 20260507050054 | 8 | 23 | 0.0 | 0.0 | 0.00 | 0.71 | 0.00 | 96 | 1012.6 |
| 20260507044606 | 8 | 23 | 0.0 | 0.0 | 0.00 | 0.71 | 0.00 | 96 | 1012.5 |
| 20260507043051 | 8 | 23 | 0.0 | 0.0 | 0.00 | 0.71 | 0.00 | 96 | 1012.3 |
| 20260507041551 | 8 | 23 | 0.0 | 0.0 | 0.00 | 0.71 | 0.00 | 96 | 1012.2 |
| 20260507040049 | 8 | 23 | 0.0 | 0.0 | 0.00 | 0.84 | 0.00 | 96 | 1012.1 |
| 20260507034548 | 8 | 25 | 0.0 | 0.0 | 0.00 | 0.84 | 0.00 | 97 | 1012.0 |
| 20260507033100 | 8 | 25 | 0.0 | 0.0 | 0.00 | 0.84 | 0.00 | 97 | 1012.0 |
| 20260507031557 | 8 | 25 | 0.0 | 0.0 | 0.00 | 0.84 | 0.00 | 97 | 1012.0 |
| 20260507024603 | 8 | 25 | 0.0 | 0.0 | 0.00 | 0.97 | 0.00 | 96 | 1011.9 |
| 20260507023043 | 8 | 25 | 0.0 | 0.0 | 0.00 | 0.97 | 0.00 | 96 | 1011.8 |
| 20260507021550 | 8 | 25 | 0.0 | 0.0 | 0.00 | 0.97 | 0.00 | 96 | 1011.7 |
| 20260507020053 | 8 | 25 | 0.0 | 0.0 | 0.00 | 1.09 | 0.00 | 96 | 1011.7 |
| 20260507014551 | 8 | 25 | 0.0 | 0.0 | 0.00 | 1.09 | 0.00 | 96 | 1011.5 |
| 20260507013042 | 8 | 25 | 0.0 | 0.0 | 0.00 | 1.09 | 0.00 | 96 | 1011.5 |
| 20260507011545 | 8 | 25 | 0.0 | 0.0 | 0.00 | 1.09 | 0.00 | 96 | 1011.4 |
| 20260507010043 | 8 | 25 | 0.0 | 0.0 | 0.00 | 1.22 | 0.00 | 96 | 1011.3 |
| 20260507004536 | 8 | 25 | 0.0 | 0.0 | 0.00 | 1.22 | 0.00 | 96 | 1011.4 |
| 20260507003035 | 8 | 25 | 0.0 | 0.0 | 0.00 | 1.22 | 0.00 | 96 | 1011.2 |
| 20260507001535 | 8 | 25 | 0.0 | 0.0 | 0.00 | 1.22 | 0.00 | 96 | 1011.0 |
| 20260507000035 | 8 | 25 | 0.0 | 0.0 | 0.00 | 1.27 | 0.00 | 96 | 1011.0 |
| 20260506234538 | 8 | 25 | 0.0 | 0.0 | 0.00 | 1.27 | 0.00 | 96 | 1011.0 |
| 20260506233032 | 8 | 25 | 0.0 | 0.0 | 0.00 | 1.27 | 0.00 | 96 | 1010.9 |
| 20260506231534 | 8 | 25 | 0.0 | 0.0 | 0.00 | 1.27 | 0.00 | 96 | 1011.0 |
| 20260506230029 | 8 | 25 | 0.0 | 0.0 | 0.00 | 1.35 | 0.00 | 96 | 1010.8 |
| 20260506224529 | 8 | 25 | 0.0 | 0.0 | 0.00 | 1.35 | 0.00 | 96 | 1010.7 |
| 20260506223027 | 8 | 25 | 0.0 | 0.0 | 0.00 | 1.35 | 0.00 | 96 | 1010.6 |
| 20260506221526 | 8 | 25 | 0.0 | 0.0 | 0.00 | 1.35 | 0.00 | 96 | 1010.6 |
| 20260506220024 | 8 | 25 | 0.0 | 0.0 | 0.00 | 1.37 | 1.35 | 96 | 1010.6 |
| 20260506214525 | 8 | 25 | 0.0 | 0.0 | 0.00 | 1.37 | 1.35 | 96 | 1010.5 |
| 20260506213022 | 8 | 25 | 0.0 | 0.0 | 0.00 | 1.37 | 1.35 | 96 | 1010.4 |
| 20260506211523 | 8 | 25 | 0.0 | 0.0 | 0.00 | 1.37 | 1.35 | 96 | 1010.3 |
| 20260506210019 | 8 | 25 | 0.0 | 0.0 | 0.00 | 1.37 | 1.35 | 96 | 1010.1 |
| 20260506204518 | 9 | 25 | 0.0 | 0.0 | 0.00 | 1.37 | 1.35 | 96 | 1010.1 |
| 20260506203016 | 9 | 26 | 0.0 | 0.0 | 0.00 | 1.37 | 1.35 | 96 | 1010.1 |
| 20260506201518 | 9 | 26 | 0.0 | 0.0 | 0.00 | 1.37 | 1.35 | 96 | 1009.8 |
| 20260506200012 | 9 | 24 | 0.0 | 0.0 | 0.00 | 1.37 | 1.35 | 96 | 1009.7 |
| 20260506194513 | 9 | 20 | 0.0 | 0.0 | 0.03 | 1.37 | 1.35 | 96 | 1009.6 |
| 20260506193013 | 9 | 20 | 0.0 | 0.0 | 0.03 | 1.37 | 1.35 | 96 | 1009.6 |
| 20260506191509 | 9 | 26 | 0.0 | 0.0 | 0.03 | 1.37 | 1.35 | 96 | 1009.4 |
| 20260506190008 | 9 | 24 | 0.0 | 0.0 | 0.03 | 1.37 | 1.35 | 96 | 1009.3 |
| 20260506184508 | 9 | 23 | 0.0 | 0.0 | 0.03 | 1.37 | 1.32 | 96 | 1009.1 |
| 20260506183008 | 9 | 23 | 0.0 | 0.0 | 0.03 | 1.37 | 1.32 | 96 | 1009.0 |
| 20260506181504 | 9 | 23 | 0.0 | 0.0 | 0.03 | 1.37 | 1.32 | 96 | 1009.0 |
| 20260506180002 | 9 | 23 | 0.0 | 0.0 | 0.00 | 1.35 | 1.30 | 96 | 1008.7 |
| 20260506174600 | 9 | 23 | 0.0 | 0.0 | 0.03 | 1.35 | 1.30 | 96 | 1008.5 |
| 20260506173558 | 10 | 23 | 0.0 | 0.0 | 0.10 | 6.71 | 1.30 | 96 | 1008.4 |
| 20260506173147 | 9 | 23 | 0.0 | 0.0 | 0.03 | 1.35 | 1.30 | 96 | 1008.4 |
| 20260506173044 | 10 | 23 | 0.0 | 0.0 | 0.10 | 6.71 | 1.30 | 96 | 1008.4 |
| 20260506172556 | 10 | 23 | 0.0 | 0.0 | 0.10 | 6.71 | 1.30 | 96 | 1008.3 |
| 20260506172044 | 10 | 23 | 0.0 | 0.0 | 0.10 | 6.71 | 1.30 | 96 | 1008.2 |
| 20260506171617 | 10 | 23 | 0.0 | 0.0 | 0.10 | 6.71 | 1.30 | 96 | 1008.3 |
| 20260506171039 | 10 | 23 | 0.0 | 0.0 | 0.10 | 6.71 | 1.30 | 96 | 1008.2 |
| 20260506170550 | 10 | 23 | 0.0 | 0.0 | 0.10 | 6.71 | 1.30 | 96 | 1008.2 |
| 20260506170141 | 9 | 23 | 0.0 | 0.0 | 0.03 | 1.35 | 1.30 | 96 | 1008.2 |
| 20260506170037 | 10 | 23 | 0.0 | 0.0 | 0.10 | 6.71 | 1.30 | 96 | 1008.3 |
| 20260506165550 | 10 | 23 | 0.0 | 0.0 | 0.10 | 6.71 | 1.30 | 96 | 1008.2 |
| 20260506165039 | 10 | 22 | 0.0 | 0.0 | 0.10 | 6.71 | 1.30 | 96 | 1008.2 |
| 20260506164550 | 10 | 22 | 0.0 | 0.0 | 0.00 | 6.60 | 1.27 | 96 | 1008.1 |
| 20260506164057 | 10 | 21 | 0.0 | 0.0 | 0.00 | 6.60 | 1.27 | 96 | 1008.1 |
| 20260506163550 | 10 | 21 | 0.0 | 0.0 | 0.00 | 6.60 | 1.27 | 96 | 1008.1 |
| 20260506163057 | 10 | 31 | 0.0 | 0.0 | 0.00 | 6.60 | 1.27 | 96 | 1008.1 |
| 20260506163021 | 10 | 31 | 0.0 | 0.0 | 0.00 | 1.32 | 1.27 | 96 | 1008.1 |
| 20260506162610 | 10 | 31 | 0.0 | 0.0 | 0.00 | 6.60 | 1.27 | 96 | 1008.1 |
| 20260506162057 | 10 | 31 | 0.0 | 0.0 | 0.00 | 6.60 | 1.27 | 96 | 1008.1 |
| 20260506161652 | 10 | 31 | 0.0 | 0.0 | 0.00 | 1.32 | 1.27 | 96 | 1008.1 |
| 20260506161551 | 10 | 30 | 0.0 | 0.0 | 0.00 | 6.60 | 1.27 | 96 | 1008.0 |
| 20260506161039 | 10 | 30 | 0.0 | 0.0 | 0.00 | 6.60 | 1.27 | 96 | 1008.0 |
| 20260506160611 | 10 | 21 | 0.0 | 0.0 | 0.00 | 6.60 | 1.27 | 96 | 1007.9 |
| 20260506160158 | 10 | 71 | 0.0 | 0.0 | 0.00 | 1.32 | 1.27 | 96 | 1007.8 |
| 20260506160055 | 10 | 71 | 0.0 | 0.0 | 0.00 | 6.60 | 1.27 | 96 | 1007.8 |
| 20260506155548 | 10 | 71 | 0.0 | 0.0 | 0.00 | 6.60 | 1.27 | 96 | 1007.8 |
| 20260506155054 | 10 | 73 | 0.0 | 0.0 | 0.00 | 6.60 | 1.27 | 96 | 1007.8 |
| 20260506154649 | 10 | 138 | 0.0 | 0.0 | 0.00 | 1.32 | 1.27 | 96 | 1007.9 |
| 20260506154547 | 10 | 139 | 0.0 | 0.0 | 0.00 | 6.60 | 1.27 | 96 | 1007.8 |
| 20260506154054 | 10 | 150 | 0.0 | 0.0 | 0.00 | 6.60 | 1.27 | 96 | 1007.8 |
| 20260506153547 | 10 | 150 | 0.0 | 0.0 | 0.00 | 6.60 | 1.27 | 96 | 1007.8 |
| 20260506153051 | 10 | 150 | 0.0 | 0.0 | 0.00 | 6.60 | 1.27 | 96 | 1007.8 |
| 20260506152544 | 10 | 142 | 0.0 | 0.0 | 0.00 | 6.60 | 1.27 | 96 | 1007.8 |
| 20260506152112 | 10 | 137 | 0.0 | 0.0 | 0.00 | 6.60 | 1.27 | 96 | 1007.8 |
| 20260506151644 | 10 | 137 | 0.0 | 0.0 | 0.00 | 1.32 | 1.27 | 96 | 1007.8 |
| 20260506151543 | 10 | 137 | 0.0 | 0.0 | 0.00 | 6.60 | 1.27 | 96 | 1007.8 |
| 20260506151052 | 10 | 137 | 0.0 | 0.0 | 0.00 | 6.60 | 1.27 | 96 | 1007.7 |
| 20260506150545 | 10 | 137 | 0.0 | 0.0 | 0.00 | 6.60 | 1.27 | 96 | 1007.7 |
| 20260506150152 | 10 | 137 | 0.0 | 0.0 | 0.00 | 1.32 | 1.27 | 96 | 1007.7 |
| 20260506150050 | 10 | 137 | 0.0 | 0.0 | 0.00 | 6.60 | 1.27 | 96 | 1007.7 |
| 20260506145544 | 10 | 137 | 0.0 | 0.0 | 0.00 | 6.60 | 1.27 | 96 | 1007.6 |
| 20260506145052 | 10 | 132 | 0.0 | 0.0 | 0.00 | 6.60 | 1.27 | 96 | 1007.6 |